Flag for U.S.A. Weather past 2 weeks in Garden Grove, California, U.S.A.

Now
82 °F

Sunny.


Feels Like: 82 °F
Forecast: 64 / 83 °F
Wind: 7 mph from North

Location: Fullerton Municipal Airport

Current Time: Sep 21, 2014 at 5:53:24 PM

Latest Report: Sep 21, 2014 at 4:53 PM


Visibility: 10 mi

Pressure: 29.89 "Hg

Humidity: 44%

Dew point: 58 °F

Location of Garden GroveLocation

Historic Weather in Garden Grove — Graph

°F

Garden Grove temperature yesterday

Maximum temperature yesterday: 80 °F (at 3:53 PM)
Minimum temperature yesterday: 68 °F (at 3:53 AM)
Average temperature yesterday: 73 °F

Past Weeks' High & Low Weather Summary

 TemperatureHumidityPressure
High104 °F (Sep 14, 2:53 PM)84% (Sep 12, 3:53 AM)29.99 "Hg (Sep 12, 3:53 AM)
Low65 °F (Sep 10, 6:53 AM)20% (Sep 9, 12:53 PM)29.66 "Hg (Sep 14, 2:53 PM)
Average80 °F54%29.80 "Hg
* Reported Sep 6 3:53 PM — Sep 21 3:53 PM, Garden Grove, Weather by CustomWeather, © 2014

Note: Actual official high and low records may vary slightly from our data, if they occured in-between our weather recording intervals... More about our weather records

Advertising

Garden Grove weather history for previous 24 hours

 ConditionsComfort  
Time TempWeatherWind HumidityBarometerVisibility
3:53 PM
Sep 21
82 °FSunny.10 mph46%29.90 "Hg10 mi
2:53 PM83 °FSunny.No wind44%29.91 "Hg10 mi
1:53 PM80 °FSunny.6 mph49%29.93 "Hg10 mi
12:53 PM76 °FPartly sunny.No wind58%29.96 "Hg10 mi
11:53 AM73 °FOvercast.No wind64%29.98 "Hg10 mi
10:53 AM72 °FOvercast.No wind66%29.99 "Hg10 mi
9:53 AM71 °FOvercast.No wind68%29.99 "Hg10 mi
8:53 AM71 °FOvercast.No wind68%29.98 "Hg10 mi
7:53 AM70 °FOvercast.No wind71%29.97 "Hg10 mi
6:53 AM70 °FOvercast.3 mph73%29.96 "Hg10 mi
5:53 AM70 °FOvercast.No wind73%29.94 "Hg10 mi
4:53 AM69 °FOvercast.3 mph73%29.93 "Hg10 mi
3:53 AM69 °FOvercast.No wind76%29.93 "Hg10 mi
2:53 AM68 °FOvercast.No wind78%29.93 "Hg10 mi
2:00 AM67 °FPassing clouds.No wind79%29.94 "Hg10 mi
12:53 AM68 °FClear.No wind76%29.93 "Hg10 mi
11:53 PM
Sep 20
68 °FClear.No wind76%29.93 "Hg10 mi
10:53 PM69 °FClear.No wind73%29.92 "Hg10 mi
9:53 PM69 °FClear.3 mph70%29.91 "Hg10 mi
8:53 PM71 °FClear.3 mph63%29.90 "Hg10 mi
7:53 PM72 °FClear.6 mph68%29.89 "Hg10 mi
6:53 PM74 °FSunny.8 mph62%29.88 "Hg10 mi
5:53 PM76 °FSunny.7 mph58%29.86 "Hg10 mi
Weather by CustomWeather, © 2014

See weather overviewHow to use our weather pages